Volver al catálogo

THORAD AGENA D DEB

ActivoSSO
NORAD 4687·DEBRIS·🇺🇸 United States

Lanzado Apr 8, 1970 desde Vandenberg Space Force Base

Loading…

Próximos Pases (próximas 24 horas)

TLE

ActualizadoSource: Space-Track

Época: Sep 14, 2026, 08:45 UTC

1 04687U 70025BL  26257.36523766  .00000099  00000-0  21679-3 0  9995
2 04687  99.5799  38.8502 0028023  65.3471 322.6139 13.51273391776328

Sigue THORAD AGENA D DEB en tiempo real con AllMySat

Download on the App Store